Location: Molveno
(46.1500°N, 10.9667°E)
Time: 08:12:28
(UTC+00:00)

Cosmos 2278 Rocket - Pass Details

Date: 05 July 2020
Orbit: 841 x 846 km, 71.0° (Epoch: 05 August)

Event Time Altitude Azimuth Distance (km) Brightness Sun altitude
Rises 22:45:34 0° 324° (NW) 3,414 6.4 -20.7°
Reaches altitude 10° 22:48:20 10° 313° (NW) 2,474 5.3 -20.8°
Maximum altitude 22:53:01 27° 257° (WSW) 1,564 3.5 -20.9°
Enters shadow 22:54:45 23° 228° (SW) 1,715 3.5 -20.9°
